Regional Weather Roundup
Issued by NWS Newport/Morehead, NC

Current Version | Previous Version | Graphics & Text | Print | Product List | Glossary Off
Versions: 1 2 3 4 5 6 7 8 9 10 11 12 13 14 15 16 17 18 19 20 21 22 23 24 25 26 27 28 29 30 31 32 33 34 35 36 37 38 39 40 41 42 43 44 45 46 47 48 49 50
000 ASUS42 KMHX 292125 RWRMHX WEATHER ROUNDUP FOR EASTERN NORTH CAROLINA NATIONAL WEATHER SERVICE NEWPORT/MOREHEAD CITY NC 500 PM EDT MON JUN 29 2015 NOTE: "FAIR" INDICATES FEW OR NO CLOUDS BELOW 12,000 FEET WITH NO SIGNIFICANT WEATHER AND/OR OBSTRUCTIONS TO VISIBILITY NCZ015>017-031-032-045>047-102-103-292200- NORTH COAST CITY SKY/WX TMP DP RH WIND PRES REMARKS EDENTON N/A 84 69 60 SE7 29.94S ELIZABETH CITY PTSUNNY 81 66 60 E10 29.96S KITTY HAWK MOCLDY 85 67 55 SE9 29.95S MANTEO PTSUNNY 81 67 63 SE6 29.96S $$ NCZ045>047-081-094-103-104-292200- CENTRAL COAST CITY SKY/WX TMP DP RH WIND PRES REMARKS FRISCO PTSUNNY 79 70 74 CALM 29.96S SWANQUARTER N/A 84 N/A N/A SE8 29.91S $$ NCZ095-097-098-100-101-292200- SOUTHERN COAST CITY SKY/WX TMP DP RH WIND PRES REMARKS BEAUFORT PTSUNNY 81 75 82 S9G17 29.94F CEDAR ISLAND N/A 88 N/A N/A S7 29.97F JACKSONVILLE MOSUNNY 84 68 58 S13 29.93F PINEY ISLAND MOCLDY N/A N/A N/A S7 29.94F WILMINGTON MOSUNNY 83 72 69 S6 29.93F $$ NCZ011>013-027>030-043-044-078>080-089-090>093-098-292200- COASTAL PLAIN CITY SKY/WX TMP DP RH WIND PRES REMARKS AHOSKIE MOSUNNY 81 66 59 CALM 29.94S CLINTON MOSUNNY 87 70 56 CALM 29.92F ELIZABETHTOWN MOSUNNY 89 58 34 SW7 29.92F GOLDSBORO MOSUNNY 87 70 57 S7 29.91S GREENVILLE PTSUNNY 82 68 61 E7 29.95S HAVELOCK PTSUNNY 84 66 54 SE7 29.95F KENANSVILLE MOSUNNY 85 64 50 SE5 29.94F KINSTON MOSUNNY 86 66 51 S9 29.94S NEW BERN MOSUNNY 85 66 53 SE6 29.95F RICHLANDS SUNNY 88 63 42 SE7 29.93F ROCKY MOUNT MOSUNNY 87 61 41 CALM 29.93F WASHINGTON MOSUNNY 82 65 55 SE8 29.94F WHITEVILLE MOSUNNY 87 63 44 W5 29.92F $$ AMZ130-135-150-152-154-156-158-170-250-252-270-ANZ085-086-088-633-658-670-292200- MARINE OBSERVATIONS STATION/POSITION TIME TEMP WIND PRES WAVE SWELL AIR SEA DIR/SP/G HT/PER HT/PER (UTC) (F) (DEG/KT/KT) (MB) (FT/S) (FT/S) CHESAPEAKE LIGHT 2100 76 130/ 7/ 7 1015.2 64 E VA BEACH 2050 77 78 140/ 2/ 4 1014.7 4/ 8 3/ 8 DUCK 2100 78 68 120/ 9/ 11 1013.6 2 E DUCK 2111 74 N/A 2/ 8 OREGON INLET 2100 78 79 70/ 6/ 9 1014.4 13E OREGON INLT 2100 76 N/A 3/ 8 HATTERAS CG 2100 81 80 200/ 2/ 4 1014.0 DIAMOND BUOY 2050 80 81 230/ 8/ 10 1014.0 4/ 8 3/ 8 CAPE LOOKOUT 2100 81 200/ 9/ 12 1013.7 BEAUFORT LAB 2100 80 81 180/ 7/ 10 1013.3 30 SE NEW RVR IN NOT AVBL 27 SE WRIGHTSVLE 2100 82 210/ 8/ 10 N/A 5 SE WRIGHTSVLE 2008 80 80 160/ 6/ 10 1014.2 225 S CAPE HAT 2050 80 80 210/ 16/ 19 1017.4 6/ 7 41 SE CHARLESTON 2050 82 83 220/ 12/ 14 1014.1 4/ 7 3/ 7 $$

USA.gov is the U.S. government's official web portal to all federal, state and local government web resources and services.